Location: *
(28.2408°N, 53.4600°E)
Time: 09:49:33
(UTC+00:00)

BREEZE-M DEB (TANK) - Pass Details

Date: 22 September 2019
Orbit: 307 x 15401 km, 49.3° (Epoch: 19 October)

Event Time Altitude Azimuth Distance (km) Brightness Sun altitude
Rises 15:12:10 0° 324° (NW) 2,044 6.4 -11.6°
Reaches altitude 10° 15:13:54 10° 338° (NNW) 1,197 5.0 -11.9°
Maximum altitude 15:15:55 31° 46° (NE) 667 2.9 -12.4°
Enters shadow 15:17:09 22° 92° (E) 1,007 3.5 -12.7°
